Location: Belmont
(13.0833°N, 59.6000°W)
Time: 11:24:18
(UTC+00:00)

Cosmos 1939 Rocket - Pass Details

Date: 17 September 2019
Orbit: 534 x 583 km, 97.4° (Epoch: 20 October)

Event Time Altitude Azimuth Distance (km) Brightness Sun altitude
Exits shadow 23:24:43 21° 179° (S) 1,241 4.5 -21.8°
Maximum altitude 23:27:11 69° 259° (WSW) 578 3.0 -22.4°
Drops below altitude 10° 23:31:02 10° 343° (NNW) 1,789 5.7 -23.3°
Sets 23:33:09 0° 346° (NNW) 2,676 6.6 -23.9°
